Printer-friendly version
Follow the MPC on Twitter Follow the MPC on Facebook The MPC blog
Minor Planet Center

MPEC 2007-V33 : 2007 VV6

The following Minor Planet Electronic Circular may be linked-to from your own Web pages, but must not otherwise be redistributed electronically.

A form allowing access to any MPEC is at the bottom of this page.


Read MPEC 2007-V32 Read MPEC 2007-V34


M.P.E.C. 2007-V33                                Issued 2007 Nov. 5, 17:02 UT

     The Minor Planet Electronic Circulars contain information on unusual
         minor planets and routine data on comets.  They are published
   on behalf of Commission 20 of the International Astronomical Union by the
          Minor Planet Center, Smithsonian Astrophysical Observatory,
                          Cambridge, MA 02138, U.S.A.

             Prepared using the Tamkin Foundation Computer Network

                              MPC@CFA.HARVARD.EDU
          URL http://www.cfa.harvard.edu/iau/mpc.html  ISSN 1523-6714

                                   2007 VV6

Observations:
     K07V06V* C2007 11 03.30784 00 34 21.75 +34 44 05.1          19.2 V EV033703
     K07V06V  C2007 11 03.31330 00 34 27.19 +34 43 51.6          18.9 V EV033703
     K07V06V  C2007 11 03.31874 00 34 32.73 +34 43 39.3          18.8 V EV033703
     K07V06V  C2007 11 03.32418 00 34 38.28 +34 43 26.7          19.1 V EV033703
     K07V06V  C2007 11 03.35419 00 35 08.49 +34 42 13.0          18.1 V EV033703
     K07V06V  C2007 11 03.36159 00 35 16.25 +34 41 54.9          18.8 V EV033703
     K07V06V  C2007 11 03.37639 00 35 31.42 +34 41 17.9          19.0 V EV033703
     K07V06V  C2007 11 03.39071 00 35 46.35 +34 40 40.8          18.9 V EV033G96
     K07V06V  C2007 11 03.39113 00 35 46.78 +34 40 39.7          18.9 V EV033G96
     K07V06V  C2007 11 03.39156 00 35 47.22 +34 40 38.7          18.9 V EV033G96
     K07V06V  C2007 11 03.39198 00 35 47.68 +34 40 37.5          18.9 V EV033G96
     K07V06V  C2007 11 03.40026 00 35 56.10 +34 40 18.8          19.3 R EV033651
     K07V06V  C2007 11 03.40089 00 35 56.80 +34 40 16.5          19.3 R EV033651
     K07V06V  C2007 11 03.40152 00 35 57.43 +34 40 15.0          19.6 R EV033651
     K07V06V  C2007 11 03.77991 00 43 06.54 +34 26 46.4          18.9 R EV033143
     K07V06V  C2007 11 03.78606 00 43 12.81 +34 26 34.6          18.8 R EV033143
     K07V06V  C2007 11 03.92343 00 45 31.94 +34 21 19.9                 EV033J95
     K07V06V  C2007 11 03.92671 00 45 35.24 +34 21 12.1                 EV033J95
     K07V06V  C2007 11 03.93003 00 45 38.57 +34 21 04.2          19.2 R EV033J95
     K07V06V  C2007 11 04.04139200 47 47.40 +34 17 03.5          19.3 V EV033H55
     K07V06V  C2007 11 04.04372100 47 49.73 +34 16 58.7          19.2 V EV033H55
     K07V06V  C2007 11 04.04605700 47 52.06 +34 16 53.8          19.3 V EV033H55
     K07V06V  C2007 11 04.14058 00 49 30.97 +34 13 42.9          18.6 V EV033G96
     K07V06V  C2007 11 04.14618 00 49 36.44 +34 13 30.2          18.8 V EV033G96
     K07V06V  C2007 11 04.15166 00 49 41.80 +34 13 18.5          18.8 V EV033G96
     K07V06V  C2007 11 04.15715 00 49 47.17 +34 13 06.6          18.9 V EV033G96
     K07V06V 5C2007 11 04.19595 00 50 26.48 +34 11 28.2          18.8 R EV033673
     K07V06V 5C2007 11 04.20087 00 50 31.27 +34 11 16.8                 EV033673
     K07V06V 5C2007 11 04.20613 00 50 36.32 +34 11 04.9                 EV033673
     K07V06V 5C2007 11 04.21030 00 50 40.45 +34 10 55.1                 EV033673
     K07V06V  C2007 11 04.85229 01 01 52.85 +33 41 53.9          18.6 V EV033104
     K07V06V  C2007 11 04.85779 01 01 58.18 +33 41 38.4          18.8 V EV033104
     K07V06V  C2007 11 04.86134 01 02 01.50 +33 41 28.8          18.8 V EV033104
     K07V06V  C2007 11 04.98298 01 03 58.53 +33 35 24.6          18.1 R EV033A24
     K07V06V  C2007 11 04.98340 01 03 58.88 +33 35 23.8          17.9 R EV033A24
     K07V06V  C2007 11 04.98381 01 03 59.33 +33 35 23.2          17.5 R EV033A24
     K07V06V  C2007 11 04.98422 01 03 59.72 +33 35 21.4          17.7 R EV033A24
     K07V06V  C2007 11 04.98463 01 04 00.13 +33 35 20.7          17.7 R EV033A24
     K07V06V  C2007 11 04.98505 01 04 00.56 +33 35 18.8          17.8 R EV033A24
     K07V06V  C2007 11 04.98546 01 04 00.92 +33 35 17.0          18.2 R EV033A24
     K07V06V  C2007 11 04.98669 01 04 02.14 +33 35 13.5          18.2 R EV033A24
     K07V06V  C2007 11 04.98690 01 04 02.33 +33 35 12.4          18.7 R EV033A24
     K07V06V  C2007 11 04.98793 01 04 03.39 +33 35 08.1          18.9 R EV033A24
     K07V06V  C2007 11 04.98875 01 04 04.17 +33 35 06.1          18.9 R EV033A24
     K07V06V  C2007 11 04.98957 01 04 04.88 +33 35 03.9          18.8 R EV033A24
     K07V06V  C2007 11 04.99081 01 04 06.10 +33 35 00.3          18.9 R EV033A24
     K07V06V  C2007 11 04.99142 01 04 06.75 +33 34 58.7          18.8 R EV033A24

Observer details:
104 San Marcello Pistoiese.  Observers L. Tesi, G. Fagioli, M. Mazzucato.
    Measurer L. Tesi.  0.60-m f/4 reflector + CCD.
143 Gnosca.  Observer S. Sposetti.  0.40-m f/4 reflector + CCD.
651 Grasslands Observatory, Tucson.  Observer J. E. McGaha.  0.62-m f/5.1
    Newtonian reflector + CCD.
673 Table Mountain Observatory, Wrightwood.  Observer J. Young.  0.61-m f/16
    Cassegrain + CCD.
703 Catalina Sky Survey.  Observer E. C. Beshore.  Measurers E. C. Beshore,
    A. Boattini, G. J. Garradd, A. R. Gibbs, A. D. Grauer, R. E. Hill,
    R. A. Kowalski, S. M. Larson, R. H. McNaught.  0.68-m Schmidt + CCD.
A24 New Millennium Observatory, Mozzate.  Observer E. Cozzi.  0.36-m f/7.6
    Schmidt-Cassegrain + CCD.
G96 Mt. Lemmon Survey.  Observer A. Boattini.  Measurers E. C. Beshore,
    A. Boattini, G. J. Garradd, A. R. Gibbs, A. D. Grauer, R. E. Hill,
    R. A. Kowalski, S. M. Larson, R. H. McNaught.  1.5-m reflector + CCD.
H55 Astronomical Research Observatory, Charleston.  Observer R. Holmes.
    0.61-m f/4.0 astrograph + CCD.
J95 Great Shefford.  Observer P. Birtwhistle.  0.40-m f/6.0 Schmidt-Cassegrain
    + CCD.

Orbital elements:
2007 VV6                                                 Earth MOID = 0.0370 AU
Epoch 2007 Oct. 27.0 TT = JDT 2454400.5                 MPC
M   3.46475              (2000.0)            P               Q
n   0.58568897     Peri.  149.61237     +0.90182944     -0.42860385
a   1.4147880      Node   235.86598     +0.38192450     +0.84999555
e   0.2799077      Incl.    3.79565     +0.20208248     +0.30627815
P   1.68           H   24.6           G   0.15           U   7
Residuals in seconds of arc
071103 703  0.0   0.7+    071103 J95  0.4-  0.0     071104 104  0.9-  0.3-
071103 703  0.6-  0.2-    071103 J95  0.1-  0.1-    071104 A24  0.2-  0.4-
071103 703  0.2+  0.2+    071103 J95  0.1+  0.2-    071104 A24  0.8-  0.2+
071103 703  0.9+  0.5+    071104 H55  0.1+  0.4+    071104 A24  0.2-  0.8+
071103 703 (2.5-  0.4-)   071104 H55  0.1+  0.2+    071104 A24  0.2-  0.3+
071103 703  0.2-  0.1-    071104 H55  0.0   0.0     071104 A24  0.0   0.9+
071103 703  0.8-  0.2+    071104 G96  0.3+  0.5+    071104 A24  0.3+  0.4+
071103 G96  0.3+  0.2-    071104 G96  0.1+  0.2-    071104 A24  0.2-  0.1-
071103 G96  0.3+  0.2-    071104 G96  0.2+  0.2-    071104 A24  0.2+  0.3+
071103 G96  0.2+  0.1-    071104 G96  0.3+  0.1-    071104 A24  0.1+  0.2-
071103 G96  0.5+  0.2-    071104 673  0.2+  0.2-    071104 A24  0.9+  1.2-
071103 651  0.4-  0.5+    071104 673  0.3+  0.3-    071104 A24  0.7+  0.6-
071103 651  0.1+  0.2-    071104 673  0.4-  0.0     071104 A24  0.3-  0.2-
071103 651  0.2-  0.0     071104 673  0.7+  0.0     071104 A24  0.0   0.2+
071103 143  0.3-  0.1-    071104 104  0.6-  0.3+    071104 A24  0.8+  0.5+
071103 143  0.4+  0.2-    071104 104  0.1+  0.4-

Ephemeris:
2007 VV6                 a,e,i = 1.41, 0.28, 4                   q = 1.0188
Date    TT    R. A. (2000) Decl.     Delta      r     Elong.  Phase     V
2007 11 06    01 21.13   +32 43.4    0.0411   1.029   155.0    24.1    18.9
2007 11 16    03 17.89   +21 44.6    0.0558   1.045   176.6     3.2    18.7
2007 11 26    04 08.24   +14 23.3    0.0809   1.067   173.5     6.0    19.8
2007 12 06    04 31.54   +10 52.7    0.113    1.096   167.8    10.9    20.7
2007 12 16    04 44.62   +09 35.4    0.151    1.129   162.3    15.4    21.6

Timothy B. Spahr             (C) Copyright 2007 MPC           M.P.E.C. 2007-V33

Read MPEC 2007-V32 Read MPEC 2007-V34


MPEC number:

Enter an MPEC number in one of the following forms:

  • 1997-B01 (the full form)
  • J97B01 (the packed version of the full form)
  • B01 (the abbreviated form)

Valid HTML 4.01!